Home > Weather > Detroit > Past weeks

Flag for USA Past Weather in Detroit, Michigan, USA — Yesterday and Last 2 Weeks

Now
70 °F

Partly cloudy.


Feels Like: 74 °F
Forecast: 69 / 79 °F
Wind: 7 mph from Northeast

Location: Detroit City Airport

Current Time: Jul 30, 2016 at 1:38:09 AM

Latest Report: Jul 30, 2016 at 12:53 AM


Visibility: 10 mi

Pressure: 29.97 "Hg

Humidity: 71%

Dew Point: 60 °F

Location of DetroitLocation

Past Weather in Detroit — Graph

°F

Detroit Temperature Yesterday

Maximum temperature yesterday: 82 °F (at 12:53 PM)
Minimum temperature yesterday: 69 °F (at 5:53 AM)
Average temperature yesterday: 74 °F

High & Low Weather Summary for the Past Weeks

 TemperatureHumidityPressure
High94 °F (Jul 23, 1:53 PM)94% (Jul 22, 4:53 AM)30.27 "Hg (Jul 22, 4:53 AM)
Low59 °F (Jul 20, 4:53 AM)33% (Jul 23, 12:53 PM)29.82 "Hg (Jul 14, 11:53 PM)
Average77 °F65%30.01 "Hg
* Reported Jul 14 11:53 PM — Jul 29 11:53 PM, Detroit, Weather by CustomWeather, © 2016

Note: Actual official high and low records may vary slightly from our data, if they occured in-between our weather recording intervals... More about our weather records

Advertising

Detroit Weather History for the Previous 24 Hours

Scroll right to see more
 ConditionsComfort  
Time TempWeatherWind HumidityBarometerVisibility
11:53 PM
Fri, Jul 29
70 °FPassing clouds.10 mph68%29.97 "Hg10 mi
10:53 PM71 °FClear.9 mph61%29.97 "Hg10 mi
9:53 PM73 °FSunny.8 mph57%29.98 "Hg10 mi
8:53 PM74 °FSunny.9 mph57%29.97 "Hg10 mi
7:53 PM75 °FOvercast.13 mph64%29.96 "Hg10 mi
6:53 PM76 °FSunny.10 mph69%29.95 "Hg10 mi
5:53 PM75 °FPassing clouds.8 mph85%29.94 "Hg10 mi
4:53 PM75 °FOvercast.9 mph71%29.95 "Hg10 mi
3:53 PM77 °FPassing clouds.12 mph66%29.94 "Hg10 mi
2:53 PM80 °FPassing clouds.10 mph60%29.95 "Hg10 mi
1:53 PM77 °FMostly cloudy.12 mph71%29.95 "Hg10 mi
12:53 PM82 °FSunny.10 mph63%29.95 "Hg10 mi
11:53 AM81 °FScattered clouds.5 mph62%29.95 "Hg10 mi
10:53 AM79 °FSunny.8 mph65%29.94 "Hg10 mi
9:53 AM76 °FPassing clouds.6 mph72%29.94 "Hg10 mi
8:53 AM74 °FSunny.7 mph74%29.94 "Hg10 mi
7:53 AM72 °FSunny.7 mph76%29.93 "Hg10 mi
6:53 AM69 °FClear.5 mph84%29.93 "Hg7 mi
5:53 AM69 °FClear.8 mph84%29.92 "Hg10 mi
4:53 AM70 °FClear.5 mph81%29.91 "Hg10 mi
3:53 AM70 °FPassing clouds.6 mph81%29.92 "Hg10 mi
2:53 AM70 °FPassing clouds.6 mph79%29.92 "Hg10 mi
1:53 AM71 °FClear.7 mph71%29.92 "Hg10 mi
Weather by CustomWeather, © 2016

See weather overviewHow to use our weather pages